This is the latest recevied weather packets stored in our database for station/object KC9GSD. If no packets are shown the sender has not sent any weather packets the latest 10 day(s).
| Time | Temp. | Humidity | Pressure | Rain* | Wind** | Luminosity | Snow |
|---|---|---|---|---|---|---|---|
| 1777583922 | 18.33° C | 54% | 1012.8 hPa | 0 mm | - | 342 W/m² | - |
| 1777583618 | 18.33° C | 52% | 1012.8 hPa | 0 mm | - | 304 W/m² | - |
| 1777583317 | 18.33° C | 50% | 1012.9 hPa | 0 mm | - | 334 W/m² | - |
| 1777583017 | 18.89° C | 50% | 1012.9 hPa | 0 mm | - | 345 W/m² | - |
| 1777582715 | 18.89° C | 50% | 1012.9 hPa | 0 mm | - | 349 W/m² | - |
| 1777582415 | 18.89° C | 52% | 1012.9 hPa | 0 mm | - | 506 W/m² | - |
| 1777582109 | 18.89° C | 47% | 1012.8 hPa | 0 mm | - | 502 W/m² | - |
| 1777581809 | 18.89° C | 47% | 1013 hPa | 0 mm | - | 414 W/m² | - |
| 1777581507 | 18.33° C | 49% | 1013.1 hPa | 0 mm | - | 334 W/m² | - |
| 1777581204 | 18.89° C | 56% | 1013.1 hPa | 0 mm | - | 440 W/m² | - |
| 1777580898 | 18.89° C | 53% | 1012.9 hPa | 0 mm | - | 381 W/m² | - |
| 1777580598 | 18.89° C | 53% | 1013.1 hPa | 0 mm | - | 335 W/m² | - |
| 1777580294 | 18.89° C | 58% | 1013.2 hPa | 0 mm | - | 320 W/m² | - |
| 1777579991 | 18.89° C | 57% | 1013 hPa | 0 mm | - | 475 W/m² | - |
| 1777579686 | 18.33° C | 53% | 1013.3 hPa | 0 mm | - | 428 W/m² | - |
| 1777579385 | 18.33° C | 52% | 1013.2 hPa | 0 mm | - | 425 W/m² | - |
| 1777579081 | 18.89° C | 49% | 1013.3 hPa | 0 mm | - | 384 W/m² | - |
| 1777578775 | 18.89° C | 57% | 1013.3 hPa | 0 mm | - | 324 W/m² | - |
| 1777578470 | 18.89° C | 58% | 1013.7 hPa | 0 mm | - | 333 W/m² | - |
| 1777578166 | 19.44° C | 57% | 1013.8 hPa | 0 mm | - | 328 W/m² | - |
| 1777577861 | 18.89° C | 58% | 1013.7 hPa | 0 mm | - | 338 W/m² | - |
| 1777577558 | 18.89° C | 53% | 1013.8 hPa | 0 mm | - | 385 W/m² | - |
| 1777577255 | 18.89° C | 58% | 1013.7 hPa | 0 mm | - | 452 W/m² | - |
| 1777576950 | 18.89° C | 53% | 1013.7 hPa | 0 mm | - | 479 W/m² | - |
| 1777576647 | 18.89° C | 55% | 1013.9 hPa | 0 mm | - | 604 W/m² | - |
* Rain latest hour (hover to see other rain measurements)
** Current wind speed in m/s (hover to see current wind gust speed)